sat.trackr.live / text

‹ back to catalog

CHINASAT 16 (SJ-13)

NORAD 42662 · 2017-018A

PAYLOAD ACTIVE UNKNOWN

§ Identity

Operator
Country
PRC
Launch date
2017-04-12
Launch site
XICLF
Launch vehicle
Mass (kg)
RCS (m²)
12.37

Purposes: comms

External: N2YO · Heavens-Above · Gunter

§ Orbital elements

Epoch: 2026-09-20T00:20:23.924256Z

Period
1,436.12 min
Inclination
0.0724°
Eccentricity
0.0006952
Mean motion
1.00270258 rev/d
Perigee alt
35,757.7 km
Apogee alt
35,816.3 km
Semi-major
42,165.2 km
B*
0.0000e+0
RAAN
91.2738°
Arg perigee
137.1455°
Mean anomaly
246.1792°
Rev number
3,470

§ Raw data

CHINASAT 16 (SJ-13)1 42662U 17018A   26263.01416579 -.00000356  00000+0  00000+0 0  99922 42662   0.0724  91.2738 0006952 137.1455 246.1792  1.00270258 34703

JSON: /api/v1/satellites/42662 · /tle

For live sub-satellite position, see the globe view (requires WebGL).

§ Visibility from observer

Set your observer location to see the next 7 days of passes ≥ 10°. The values pass through the URL so the page stays shareable.

No JS? Fill the form by hand. The geolocation button needs JavaScript.